Home > Weather > Maraimalai Nagar > Past weeks

Flag for India Past Weather in Maraimalai Nagar, Tamil Nadu, India — Yesterday and Last 2 Weeks

Now
84 °F

Passing clouds.


Feels Like: 96 °F
Forecast: 79 / 92 °F
Wind: 6 mph from South

Location: Madras / Minambakkam

Current Time: Jul 25, 2016 at 12:10:58 AM

Latest Report: Jul 24, 2016 at 11:30 PM


Visibility: 4 mi

Pressure: 29.68 "Hg

Humidity: 84%

Dew Point: 79 °F

Location of Maraimalai NagarLocation

Past Weather in Maraimalai Nagar — Graph

°F

Maraimalai Nagar Temperature Yesterday

Maximum temperature yesterday: 95 °F (at 1:30 PM)
Minimum temperature yesterday: 81 °F (at 5:00 AM)
Average temperature yesterday: 87 °F

High & Low Weather Summary for the Past Weeks

 TemperatureHumidityPressure
High99 °F (Jul 12, 1:30 PM)100% (Jul 19, 7:30 AM)29.80 "Hg (Jul 19, 7:30 AM)
Low75 °F (Jul 20, 3:30 AM)37% (Jul 12, 3:30 PM)29.50 "Hg (Jul 10, 3:30 PM)
Average87 °F65%29.65 "Hg
* Reported Jul 9 10:30 PM — Jul 24 11:00 PM, Maraimalai Nagar, Weather by CustomWeather, © 2016

Note: Actual official high and low records may vary slightly from our data, if they occured in-between our weather recording intervals... More about our weather records

Advertising

Maraimalai Nagar Weather History for the Previous 24 Hours

Scroll right to see more
 ConditionsComfort  
Time TempWeatherWind HumidityBarometerVisibility
11:00 PM
Sun, Jul 24
84 °FPassing clouds.6 mph84%29.68 "Hg4 mi
10:30 PM84 °FPassing clouds.6 mph84%29.68 "Hg4 mi
10:00 PM86 °FPassing clouds.6 mph79%29.68 "Hg4 mi
9:30 PM86 °FPassing clouds.8 mph75%29.68 "Hg4 mi
9:00 PM86 °FPassing clouds.9 mph75%29.65 "Hg4 mi
8:30 PM86 °FPassing clouds.9 mph79%29.65 "Hg4 mi
7:30 PM86 °FPassing clouds.9 mph75%29.62 "Hg4 mi
7:00 PM86 °FScattered clouds.9 mph70%29.62 "Hg4 mi
6:30 PM88 °FScattered clouds.9 mph62%29.59 "Hg4 mi
6:00 PM88 °FScattered clouds.7 mph66%29.59 "Hg4 mi
5:30 PM88 °FScattered clouds.9 mph66%29.56 "Hg4 mi
5:00 PM90 °FScattered clouds.9 mph63%29.56 "Hg4 mi
4:30 PM90 °FScattered clouds.8 mph67%29.59 "Hg4 mi
4:00 PM91 °FScattered clouds.9 mph63%29.59 "Hg4 mi
3:30 PM95 °FScattered clouds.3 mph50%29.59 "Hg5 mi
3:00 PM95 °FScattered clouds.7 mph50%29.59 "Hg5 mi
2:30 PM95 °FScattered clouds.8 mph50%29.59 "Hg5 mi
2:00 PM95 °FScattered clouds.10 mph50%29.59 "Hg5 mi
1:30 PM95 °FScattered clouds.8 mph50%29.59 "Hg5 mi
1:00 PM93 °FPassing clouds.7 mph53%29.59 "Hg5 mi
12:30 PM93 °FPassing clouds.10 mph49%29.62 "Hg5 mi
12:00 PM91 °FPassing clouds.7 mph52%29.62 "Hg5 mi
11:30 AM91 °FPassing clouds.9 mph52%29.62 "Hg5 mi
11:00 AM91 °FPassing clouds.9 mph52%29.65 "Hg5 mi
10:30 AM91 °FPassing clouds.10 mph52%29.65 "Hg5 mi
10:00 AM90 °FPassing clouds.9 mph55%29.65 "Hg4 mi
9:30 AM90 °FScattered clouds.10 mph55%29.65 "Hg4 mi
9:00 AM90 °FScattered clouds.9 mph59%29.68 "Hg4 mi
8:30 AM88 °FScattered clouds.8 mph62%29.68 "Hg4 mi
8:00 AM86 °FScattered clouds.7 mph66%29.65 "Hg3 mi
7:30 AM84 °FScattered clouds.6 mph70%29.65 "Hg3 mi
7:00 AM84 °FScattered clouds.5 mph74%29.62 "Hg3 mi
6:30 AM81 °FScattered clouds.No wind84%29.62 "Hg3 mi
6:00 AM81 °FPassing clouds.No wind84%29.59 "Hg3 mi
5:30 AM81 °FFog.No wind89%29.59 "Hg3 mi
5:00 AM81 °FFog.3 mph89%29.62 "Hg3 mi
4:30 AM82 °FFog.5 mph84%29.62 "Hg3 mi
4:00 AM82 °FFog.3 mph89%29.62 "Hg3 mi
3:30 AM82 °FFog.5 mph84%29.62 "Hg3 mi
3:00 AM82 °FFog.5 mph84%29.62 "Hg3 mi
2:30 AM82 °FFog.8 mph89%29.62 "Hg3 mi
2:00 AM82 °FFog.6 mph89%29.62 "Hg3 mi
1:30 AM82 °FFog.6 mph89%29.62 "Hg3 mi
1:00 AM82 °FFog.6 mph89%29.62 "Hg3 mi
12:30 AM82 °FFog.6 mph89%29.62 "Hg3 mi
12:00 AM82 °FFog.6 mph89%29.65 "Hg3 mi
Weather by CustomWeather, © 2016

See weather overviewHow to use our weather pages